Estación de Polizones INIA

Ultimos registro cada 15 minutos 31
Estación Fecha / Hora Temperatura Humedad Lluvia Velocidad Dirección Radiación Presion
31 Polizones INIA 01-09-2026 07:30 6,1 96,2 0 0,5 339 2,2 1003
30 Polizones INIA 01-09-2026 07:15 6 96,3 0 0 0 0,5 1003
29 Polizones INIA 01-09-2026 07:00 6 96,4 0 0,7 338 0 1003
28 Polizones INIA 01-09-2026 06:45 5,9 96,7 0 0,3 341 0 1003
27 Polizones INIA 01-09-2026 06:30 5,9 97,2 0 0,6 9 0 1004
26 Polizones INIA 01-09-2026 06:15 5,7 97,6 0 0,2 28 0 1004
25 Polizones INIA 01-09-2026 06:00 5,6 97,4 0 0 0 0 1004
24 Polizones INIA 01-09-2026 05:45 5,6 97,3 0 0 0 0 1004
23 Polizones INIA 01-09-2026 05:30 5,6 97,3 0 0 0 0 1004
22 Polizones INIA 01-09-2026 05:15 5,6 97,2 0 0 0 0 1004
21 Polizones INIA 01-09-2026 05:00 5,6 97,2 0 0 0 0 1004
20 Polizones INIA 01-09-2026 04:45 5,5 97,1 0 0 0 0 1004
19 Polizones INIA 01-09-2026 04:30 5,4 96,9 0 0 0 0 1004
18 Polizones INIA 01-09-2026 04:15 5,4 96,7 0 0 0 0 1004
17 Polizones INIA 01-09-2026 04:00 5,4 96,5 0 0 0 0 1004
16 Polizones INIA 01-09-2026 03:45 5,7 96,2 0 0 0 0 1004
15 Polizones INIA 01-09-2026 03:30 5,7 96,3 0 0 0 0 1004
14 Polizones INIA 01-09-2026 03:15 5,7 96,3 0 0 0 0 1004
13 Polizones INIA 01-09-2026 03:00 5,9 96,1 0 0 0 0 1005
12 Polizones INIA 01-09-2026 02:45 5,8 96,2 0 0 0 0 1005
11 Polizones INIA 01-09-2026 02:30 5,8 95,9 0 0 0 0 1005
10 Polizones INIA 01-09-2026 02:15 5,5 96,4 0 0 0 0 1005
9 Polizones INIA 01-09-2026 02:00 5,5 95,9 0 0 0 0 1005
8 Polizones INIA 01-09-2026 01:45 5,4 95,6 0 0 0 0 1005
7 Polizones INIA 01-09-2026 01:30 5,8 95 0 0 0 0 1005
6 Polizones INIA 01-09-2026 01:15 5,9 94,8 0 0 0 0 1005
5 Polizones INIA 01-09-2026 01:00 5,9 94,1 0 0 0 0 1006
4 Polizones INIA 01-09-2026 00:45 6,2 93 0 0 0 0 1006
3 Polizones INIA 01-09-2026 00:30 6,7 90,7 0 0,2 31 0 1006
2 Polizones INIA 01-09-2026 00:15 6,7 90,3 0 0,2 1 0 1006
1 Polizones INIA 01-09-2026 00:00 6,7 90,4 0 0,1 306 0 1006